Ionia, MI

4:54 AM EDT on July 26, 2017 (GMT -0400)
Ionia

Weather History for KY70 - March, 2013

Change the Weather History Date:

Friday, March 29, 2013

  Actual Average (KGRR) Record (KGRR)
Temperature  
Mean Temperature 40 °F -  
Max Temperature 52 °F 48 °F 82 °F (1910)
Min Temperature 27 °F 32 °F 6 °F (1970)
Degree Days  
Heating Degree Days 26    
Moisture  
Dew Point 24 °F    
Average Humidity 56    
Maximum Humidity 84    
Minimum Humidity 31    
Precipitation  
Precipitation 0.00 in - - ()
Sea Level Pressure  
Sea Level Pressure 30.24 in    
Wind  
Wind Speed 6 mph (West)    
Max Wind Speed 13 mph    
Max Gust Speed -    
Visibility 10 miles    
Events      
Averages and records for this station are not official NWS values.
T = Trace of Precipitation, MM = Missing Value Source: NWS Daily Summary

Daily Weather History Graph

Daily Weather History Graph

Search for Another Location

Airport or City:

Trip Planner

Search our weather history database for the weather conditions in past years. The results will help you decide how hot, cold, wet, or windy it might be!

Date:

Astronomy

Mar. 29, 2013 Rise Set
Actual Time 7:27 AM EDT 8:03 PM EDT
Civil Twilight 6:58 AM EDT 8:31 PM EDT
Nautical Twilight 6:24 AM EDT 9:05 PM EDT
Astronomical Twilight 5:50 AM EDT 9:40 PM EDT
Moon 11:07 PM EDT (3/29) 8:31 AM EDT (3/29)
Length of Visible Light 13h 33m
Length of Day
12h 36m
Waning Gibbous, 93% of the Moon is Illuminated
Mar 29
Waning Gibbous
Apr 3
Last Quarter
Apr 10
New
Apr 18
First Quarter
Apr 25
Full

Hourly Weather History & Observations

Time (EDT) Temp. Windchill Dew Point Humidity Pressure Visibility Wind Dir Wind Speed Gust Speed Precip Events Conditions
12:14 AM 34.5 °F 29.4 °F 22.3 °F 61% 30.27 in 10.0 mi West 5.8 mph - N/A   Clear
12:34 AM 34.2 °F 28.2 °F 22.1 °F 61% 30.27 in 10.0 mi West 6.9 mph - N/A   Clear
12:54 AM 34.3 °F 28.4 °F 21.6 °F 60% 30.27 in 10.0 mi West 6.9 mph - N/A   Clear
1:14 AM 32.4 °F 26.0 °F 22.5 °F 67% 30.27 in 10.0 mi West 6.9 mph - N/A   Clear
1:34 AM 33.3 °F 27.1 °F 21.4 °F 62% 30.27 in 10.0 mi West 6.9 mph - N/A   Clear
1:54 AM 33.1 °F 26.9 °F 21.2 °F 62% 30.27 in 10.0 mi West 6.9 mph - N/A   Clear
2:14 AM 32.9 °F 27.5 °F 21.2 °F 62% 30.27 in 10.0 mi West 5.8 mph - N/A   Clear
2:34 AM 30.9 °F 24.3 °F 22.6 °F 71% 30.27 in 10.0 mi West 6.9 mph - N/A   Clear
2:54 AM 29.3 °F 22.3 °F 22.5 °F 76% 30.27 in 10.0 mi West 6.9 mph - N/A   Clear
3:14 AM 30.7 °F 27.3 °F 23.0 °F 73% 30.27 in 10.0 mi WNW 3.5 mph - N/A   Clear
3:34 AM 30.9 °F 26.2 °F 23.0 °F 72% 30.27 in 10.0 mi West 4.6 mph - N/A   Clear
3:54 AM 30.6 °F 25.8 °F 23.0 °F 74% 30.27 in 10.0 mi West 4.6 mph - N/A   Clear
4:14 AM 29.7 °F 23.7 °F 23.7 °F 79% 30.27 in 10.0 mi West 5.8 mph - N/A   Clear
4:34 AM 29.7 °F 23.7 °F 22.8 °F 76% 30.27 in 7.0 mi West 5.8 mph - N/A   Clear
4:54 AM 29.1 °F 23.0 °F 22.6 °F 77% 30.27 in 10.0 mi West 5.8 mph - N/A   Clear
5:14 AM 29.1 °F 25.4 °F 23.2 °F 78% 30.27 in 10.0 mi West 3.5 mph - N/A   Clear
5:34 AM 28.9 °F 23.9 °F 22.8 °F 78% 30.27 in 10.0 mi West 4.6 mph - N/A   Clear
5:54 AM 29.7 °F 24.7 °F 22.1 °F 73% 30.27 in 10.0 mi West 4.6 mph - N/A   Clear
6:14 AM 28.0 °F 22.8 °F 23.2 °F 82% 30.27 in 10.0 mi WSW 4.6 mph - N/A   Clear
6:34 AM 27.7 °F 21.3 °F 22.5 °F 81% 30.26 in 10.0 mi WSW 5.8 mph - N/A   Clear
6:54 AM 27.3 °F 23.4 °F 22.6 °F 83% 30.26 in 10.0 mi WSW 3.5 mph - N/A   Clear
7:14 AM 27.5 °F 22.2 °F 23.4 °F 84% 30.27 in 10.0 mi WSW 4.6 mph - N/A   Clear
7:34 AM 28.0 °F 21.7 °F 23.4 °F 83% 30.27 in 10.0 mi West 5.8 mph - N/A   Clear
7:54 AM 27.7 °F 20.4 °F 23.2 °F 83% 30.27 in 10.0 mi WSW 6.9 mph - N/A   Clear
8:14 AM 30.0 °F 24.1 °F 24.8 °F 81% 30.27 in 7.0 mi West 5.8 mph - N/A   Clear
8:34 AM 31.1 °F - 25.9 °F 81% 30.28 in 10.0 mi Calm Calm - N/A   Clear
8:54 AM 32.0 °F 28.7 °F 26.1 °F 79% 30.27 in 10.0 mi West 3.5 mph - N/A   Clear
9:14 AM 34.2 °F 31.2 °F 27.5 °F 77% 30.27 in 10.0 mi WNW 3.5 mph - N/A   Clear
9:34 AM 35.6 °F 31.7 °F 28.0 °F 74% 30.28 in 10.0 mi WNW 4.6 mph - N/A   Clear
9:54 AM 36.5 °F 32.7 °F 28.8 °F 74% 30.28 in 10.0 mi WNW 4.6 mph - N/A   Clear
10:14 AM 37.4 °F 33.8 °F 29.1 °F 72% 30.28 in 10.0 mi NW 4.6 mph - N/A   Clear
10:34 AM 39.0 °F 36.8 °F 29.3 °F 68% 30.28 in 10.0 mi NNW 3.5 mph - N/A   Clear
10:54 AM 40.8 °F 38.8 °F 28.9 °F 63% 30.28 in 10.0 mi West 3.5 mph - N/A   Clear
11:14 AM 42.1 °F - 27.3 °F 56% 30.28 in 10.0 mi Calm Calm - N/A   Clear
11:34 AM 41.9 °F 40.0 °F 25.9 °F 53% 30.28 in 10.0 mi SSW 3.5 mph - N/A   Clear
11:54 AM 43.0 °F - 25.7 °F 51% 30.28 in 10.0 mi Calm Calm - N/A   Clear
12:14 PM 44.1 °F 42.5 °F 25.7 °F 49% 30.28 in 10.0 mi SSW 3.5 mph - N/A   Clear
12:54 PM 45.7 °F 43.4 °F 26.1 °F 46% 30.27 in 10.0 mi SSW 4.6 mph - N/A   Clear
1:14 PM 46.6 °F - 25.2 °F 43% 30.26 in 10.0 mi Calm Calm - N/A   Clear
1:34 PM 47.5 °F - 27.0 °F 45% 30.25 in 10.0 mi Calm Calm - N/A   Clear
1:54 PM 48.4 °F - 24.6 °F 39% 30.25 in 10.0 mi Calm Calm - N/A   Clear
2:14 PM 50.2 °F - 22.1 °F 33% 30.24 in 10.0 mi WNW 3.5 mph - N/A   Clear
2:34 PM 49.5 °F - 21.7 °F 34% 30.23 in 10.0 mi NNW 5.8 mph - N/A   Clear
2:54 PM 50.9 °F - 23.2 °F 34% 30.23 in 10.0 mi WSW 4.6 mph - N/A   Mostly Cloudy
3:14 PM 50.5 °F - 22.8 °F 34% 30.22 in 10.0 mi Calm Calm - N/A   Mostly Cloudy
3:34 PM 51.3 °F - 22.3 °F 32% 30.21 in 10.0 mi SSW 5.8 mph - N/A   Mostly Cloudy
3:54 PM 52.7 °F - 22.3 °F 31% 30.21 in 10.0 mi West 3.5 mph - N/A   Scattered Clouds
4:14 PM 52.0 °F - 23.4 °F 33% 30.20 in 10.0 mi NNW 9.2 mph - N/A   Scattered Clouds
4:34 PM 51.6 °F - 22.5 °F 32% 30.20 in 10.0 mi WNW 8.1 mph - N/A   Scattered Clouds
4:54 PM 52.5 °F - 22.1 °F 31% 30.20 in 10.0 mi Calm Calm - N/A   Clear
5:14 PM 51.4 °F - 21.9 °F 32% 30.19 in 10.0 mi WNW 10.4 mph - N/A   Clear
5:34 PM 49.3 °F - 21.4 °F 33% 30.19 in 10.0 mi WNW 10.4 mph - N/A   Clear
5:54 PM 50.5 °F - 22.5 °F 33% 30.19 in 10.0 mi WNW 11.5 mph - N/A   Clear
6:14 PM 50.9 °F - 22.3 °F 33% 30.19 in 10.0 mi West 6.9 mph - N/A   Scattered Clouds
6:34 PM 50.5 °F - 22.1 °F 33% 30.19 in 10.0 mi West 12.7 mph - N/A   Scattered Clouds
6:54 PM 49.5 °F - 22.1 °F 34% 30.19 in 10.0 mi WNW 10.4 mph - N/A   Scattered Clouds
7:14 PM 48.6 °F - 20.8 °F 34% 30.19 in 10.0 mi West 10.4 mph - N/A   Clear
7:34 PM 47.5 °F - 20.3 °F 34% 30.20 in 10.0 mi West 11.5 mph - N/A   Clear
7:54 PM 46.2 °F 41.2 °F 20.3 °F 36% 30.20 in 10.0 mi West 10.4 mph - N/A   Clear
8:14 PM 45.0 °F 41.2 °F 21.0 °F 39% 30.20 in 10.0 mi WNW 6.9 mph - N/A   Clear
8:34 PM 44.1 °F 39.0 °F 22.1 °F 42% 30.20 in 10.0 mi WNW 9.2 mph - N/A   Clear
8:54 PM 43.3 °F 38.6 °F 22.6 °F 44% 30.21 in 10.0 mi WNW 8.1 mph - N/A   Clear
9:14 PM 42.3 °F 37.3 °F 23.0 °F 47% 30.21 in 10.0 mi WNW 8.1 mph - N/A   Clear
9:34 PM 41.2 °F 36.0 °F 23.0 °F 48% 30.22 in 10.0 mi WNW 8.1 mph - N/A   Clear
9:54 PM 41.0 °F 37.1 °F 23.2 °F 49% 30.22 in 10.0 mi WNW 5.8 mph - N/A   Clear
10:14 PM 39.9 °F 35.1 °F 23.2 °F 51% 30.22 in 10.0 mi WNW 6.9 mph - N/A   Clear
10:34 PM 39.6 °F 34.7 °F 23.0 °F 52% 30.22 in 10.0 mi WNW 6.9 mph - N/A   Clear
10:54 PM 38.7 °F 34.3 °F 23.0 °F 53% 30.22 in 10.0 mi WNW 5.8 mph - N/A   Clear
11:14 PM 38.5 °F 34.1 °F 23.2 °F 54% 30.22 in 10.0 mi West 5.8 mph - N/A   Clear
11:34 PM 37.2 °F 33.6 °F 23.7 °F 58% 30.21 in 10.0 mi WNW 4.6 mph - N/A   Clear
11:54 PM 35.6 °F 30.7 °F 24.3 °F 63% 30.21 in 10.0 mi WNW 5.8 mph - N/A   Clear